Location: Bishop's University Astronomical Observatory
(45.3661°N, 71.8475°W)
Time: 16:43:14
(UTC-04:00)

CZ-4C R/B - Visible Passes

Search period start: 18 April 2014 00:00
Search period end: 28 April 2014 00:00
Orbit: 799 x 1204 km, 63.4° (Epoch: 18 April)

Date Brightness Start Highest point End Pass type
(mag) Time Alt. Az. Time Alt. Az. Time Alt. Az.
18 Apr 5.2 01:30:32 10° NNW 01:34:25 16° N 01:38:30 10° NE visible
18 Apr 4.4 03:19:12 10° NNW 03:25:08 33° NE 03:31:32 10° E visible
18 Apr 2.8 05:07:29 10° NW 05:14:21 78° SW 05:21:48 10° SSE visible
18 Apr 2.2 20:32:32 10° SSW 20:38:03 72° SE 20:44:08 10° NE visible
18 Apr 4.3 22:22:12 10° W 22:27:12 29° NNW 22:32:38 10° NNE visible
19 Apr 5.2 00:14:23 10° NW 00:18:00 16° N 00:21:47 10° NNE visible
19 Apr 5.0 02:04:27 10° NNW 02:09:12 21° NNE 02:14:16 10° ENE visible
19 Apr 3.6 03:52:41 10° NNW 03:59:18 53° NE 04:06:28 10° ESE visible
19 Apr 3.0 21:06:13 10° SW 21:11:45 58° NW 21:17:52 10° NNE visible
19 Apr 4.9 22:57:25 10° WNW 23:01:43 20° NNW 23:06:19 10° NNE visible
20 Apr 5.2 00:49:10 10° NNW 00:52:54 16° N 00:56:50 10° NE visible
20 Apr 4.5 02:38:02 10° NNW 02:43:45 29° NNE 02:49:55 10° E visible
20 Apr 2.8 04:26:17 10° NW 04:33:09 89° SW 04:40:37 10° SE visible
20 Apr 4.1 21:40:41 10° W 21:45:50 33° NW 21:51:27 10° NNE visible
20 Apr 5.2 23:32:48 10° NW 23:36:29 16° N 23:40:23 10° NNE visible
21 Apr 5.1 01:23:14 10° NNW 01:27:45 19° NNE 01:32:32 10° ENE visible
21 Apr 3.8 03:11:32 10° NNW 03:18:00 47° NE 03:25:01 10° ESE visible
21 Apr 3.0 05:00:07 10° NW 05:06:44 49° WSW 05:13:51 10° S visible
21 Apr 2.7 20:24:56 10° SW 20:30:31 69° NW 20:36:40 10° NE visible
21 Apr 4.8 22:15:47 10° WNW 22:20:16 22° NNW 22:25:06 10° NNE visible
22 Apr 5.3 00:07:46 10° NNW 00:11:24 15° N 00:15:12 10° NE visible
22 Apr 4.6 01:56:53 10° NNW 02:02:22 27° NNE 02:08:15 10° E visible
22 Apr 2.9 03:45:05 10° NW 03:51:56 80° NE 03:59:23 10° SE visible
22 Apr 3.9 20:59:13 10° WSW 21:04:30 37° NW 21:10:17 10° NNE visible
22 Apr 5.2 22:51:11 10° NW 22:55:00 17° NNW 22:59:02 10° NNE visible
23 Apr 5.1 00:41:59 10° NNW 00:46:16 18° NNE 00:50:48 10° ENE visible
23 Apr 3.9 02:30:23 10° NNW 02:36:41 41° NE 02:43:31 10° ESE visible
23 Apr 2.8 04:18:50 10° NW 04:25:35 58° WSW 04:32:52 10° SSE visible
23 Apr 4.7 21:34:11 10° W 21:38:51 24° NNW 21:43:53 10° NNE visible
23 Apr 5.2 23:26:19 10° NW 23:29:53 15° N 23:33:38 10° NE visible
24 Apr 4.7 01:15:42 10° NNW 01:20:57 24° NNE 01:26:34 10° E visible
24 Apr 3.0 03:03:54 10° NW 03:10:42 69° NE 03:18:05 10° SE visible
24 Apr 3.5 04:53:03 10° NW 04:58:58 30° WSW 05:05:13 10° S visible
24 Apr 3.7 20:17:48 10° WSW 20:23:11 43° NW 20:29:06 10° NNE visible
24 Apr 5.1 22:09:33 10° NW 22:13:31 18° NNW 22:17:43 10° NNE visible
25 Apr 5.1 00:00:43 10° NNW 00:04:47 17° NNE 00:09:04 10° NE visible
25 Apr 4.1 01:49:14 10° NNW 01:55:21 36° NE 02:01:59 10° ESE visible
25 Apr 2.7 03:37:36 10° NW 03:44:25 68° WSW 03:51:48 10° SSE visible
25 Apr 4.6 20:52:36 10° W 20:57:27 26° NNW 21:02:42 10° NNE visible
25 Apr 5.2 22:44:48 10° NW 22:48:22 15° N 22:52:07 10° NNE visible
26 Apr 4.8 00:34:31 10° NNW 00:39:31 22° NNE 00:44:51 10° ENE visible
26 Apr 3.2 02:22:44 10° NNW 02:29:27 60° NE 02:36:44 10° SE visible
26 Apr 3.3 04:11:39 10° NW 04:17:52 36° WSW 04:24:29 10° S visible
26 Apr 5.0 21:27:54 10° WNW 21:32:02 19° NNW 21:36:26 10° NNE visible
26 Apr 5.1 23:19:24 10° NNW 23:23:17 16° N 23:27:22 10° NE visible
27 Apr 4.2 01:08:04 10° NNW 01:14:00 33° NE 01:20:23 10° E visible
27 Apr 2.7 02:56:22 10° NW 03:03:14 79° SW 03:10:41 10° SSE visible
27 Apr 4.0 04:46:38 10° WNW 04:51:01 18° WSW 04:55:35 10° SW visible
27 Apr 5.1 22:03:15 10° NW 22:06:51 16° N 22:10:39 10° NNE visible
27 Apr 4.8 23:53:19 10° NNW 23:58:04 21° NNE 00:00:00 18° NE visible
